When you browse on this site, cookies collect data to enhance your experience and personalize the content and advertising you see.
Visit our Privacy Policy to learn more. By continuing to use the site, you agree to this use of cookies and data.
  • In Schweiz
  • Länderverzeichnis
  • Für 7 Tage
  • Wassertemperatur
  • Satellitenkarten
  • Wetterkarte
  • Widgets
  • user-avatar
    Anmelden

    Stündliche Wetter Saurimo

    Heute, 20 Januar, Sonntag

    Zeit Temperatur Niederschläge Wind Luftdruck Luftfeuchtigkeit
    00:00 +18°C° 0.1 mm 0 m/S 671 mmHg 97%
    01:00 +18°C° 0.1 mm 0 m/S 671 mmHg 98%
    02:00 +18°C° 0.1 mm 0 m/S 671 mmHg 98%
    03:00 +18°C° 0.1 mm 0 m/S 670 mmHg 98%
    04:00 +18°C° 0.1 mm 0 m/S 670 mmHg 98%
    05:00 +18°C° 0.3 mm 0 m/S 671 mmHg 97%
    06:00 +18°C° 0.3 mm 0 m/S 671 mmHg 96%
    07:00 +19°C° 0.3 mm 0 m/S 672 mmHg 95%
    08:00 +20°C° 0.1 mm 0 m/S 672 mmHg 90%
    09:00 +21°C° 0.1 mm 0 m/S 672 mmHg 84%
    10:00 +25°C° 0.1 mm 1 m/S 673 mmHg 79%
    11:00 +26°C° 0.1 mm 1 m/S 672 mmHg 71%
    12:00 +27°C° 0.1 mm 2 m/S 672 mmHg 63%
    13:00 +29°C° 0.1 mm 3 m/S 672 mmHg 55%
    14:00 +28°C° 0.2 mm 3 m/S 671 mmHg 60%
    15:00 +28°C° 0.2 mm 3 m/S 671 mmHg 64%
    16:00 +27°C° 0.2 mm 3 m/S 670 mmHg 69%
    17:00 +25°C° 0.4 mm 2 m/S 670 mmHg 77%
    18:00 +23°C° 0.4 mm 2 m/S 670 mmHg 85%
    19:00 +21°C° 0.4 mm 1 m/S 670 mmHg 92%
    20:00 +21°C° 0 mm 1 m/S 671 mmHg 93%
    21:00 +21°C° 0 mm 1 m/S 671 mmHg 94%
    22:00 +20°C° 0 mm 1 m/S 672 mmHg 94%
    23:00 +20°C° 0 mm 1 m/S 671 mmHg 95%

    Morgen, 21 Januar, Montag

    Zeit Temperatur Niederschläge Wind Luftdruck Luftfeuchtigkeit
    00:00 +20°C° 0 mm 1 m/S 671 mmHg 96%
    01:00 +19°C° 0 mm 1 m/S 671 mmHg 97%
    02:00 +19°C° 0 mm 1 m/S 671 mmHg 97%
    03:00 +19°C° 0 mm 1 m/S 671 mmHg 98%
    04:00 +19°C° 0 mm 1 m/S 671 mmHg 98%
    05:00 +20°C° 0 mm 1 m/S 671 mmHg 97%
    06:00 +20°C° 0 mm 1 m/S 672 mmHg 95%
    07:00 +21°C° 0 mm 1 m/S 672 mmHg 94%
    08:00 +23°C° 0.4 mm 1 m/S 673 mmHg 88%
    09:00 +25°C° 0.4 mm 1 m/S 673 mmHg 82%
    10:00 +27°C° 0.4 mm 1 m/S 673 mmHg 76%
    11:00 +27°C° 1.4 mm 1 m/S 672 mmHg 75%
    12:00 +27°C° 1.4 mm 1 m/S 672 mmHg 75%
    13:00 +27°C° 1.4 mm 2 m/S 671 mmHg 75%
    14:00 +26°C° 1 mm 2 m/S 670 mmHg 78%
    15:00 +26°C° 1 mm 2 m/S 670 mmHg 80%
    16:00 +26°C° 1 mm 2 m/S 670 mmHg 82%
    17:00 +24°C° 1 mm 2 m/S 670 mmHg 86%
    18:00 +23°C° 1 mm 2 m/S 670 mmHg 91%
    19:00 +20°C° 1 mm 2 m/S 670 mmHg 95%
    20:00 +21°C° 0 mm 1 m/S 670 mmHg 95%
    21:00 +20°C° 0 mm 1 m/S 671 mmHg 96%
    22:00 +20°C° 0 mm 1 m/S 671 mmHg 96%
    23:00 +20°C° 0 mm 1 m/S 671 mmHg 96%

    übermorgen, 22 Januar, Dienstag

    Zeit Temperatur Niederschläge Wind Luftdruck Luftfeuchtigkeit
    00:00 +19°C° 0 mm 1 m/S 670 mmHg 96%
    01:00 +19°C° 0 mm 1 m/S 670 mmHg 96%
    02:00 +19°C° 0 mm 1 m/S 670 mmHg 96%
    03:00 +19°C° 0 mm 1 m/S 670 mmHg 96%
    04:00 +19°C° 0 mm 1 m/S 670 mmHg 97%
    05:00 +19°C° 0 mm 1 m/S 670 mmHg 95%
    06:00 +20°C° 0 mm 1 m/S 671 mmHg 94%
    07:00 +21°C° 0 mm 1 m/S 671 mmHg 92%
    08:00 +23°C° 0 mm 1 m/S 672 mmHg 81%
    09:00 +26°C° 0 mm 2 m/S 672 mmHg 70%
    10:00 +28°C° 0 mm 2 m/S 673 mmHg 60%
    11:00 +29°C° 0 mm 2 m/S 672 mmHg 55%
    12:00 +30°C° 0 mm 3 m/S 671 mmHg 51%
    13:00 +31°C° 0 mm 3 m/S 670 mmHg 47%
    14:00 +31°C° 0 mm 3 m/S 670 mmHg 49%
    15:00 +31°C° 0 mm 3 m/S 669 mmHg 50%
    16:00 +30°C° 0 mm 2 m/S 669 mmHg 52%
    17:00 +28°C° 0.3 mm 2 m/S 669 mmHg 63%
    18:00 +25°C° 0.3 mm 3 m/S 669 mmHg 74%
    19:00 +22°C° 0.3 mm 3 m/S 669 mmHg 85%
    20:00 +21°C° 0 mm 2 m/S 670 mmHg 87%
    21:00 +21°C° 0 mm 2 m/S 670 mmHg 89%
    22:00 +20°C° 0 mm 2 m/S 670 mmHg 92%
    23:00 +20°C° 0.1 mm 2 m/S 670 mmHg 92%

    23 Januar, Mittwoch

    Zeit Temperatur Niederschläge Wind Luftdruck Luftfeuchtigkeit
    00:00 +21°C° 0.1 mm 1 m/S 669 mmHg 93%
    01:00 +20°C° 0.1 mm 1 m/S 669 mmHg 93%
    02:00 +20°C° 0.1 mm 1 m/S 669 mmHg 94%
    03:00 +20°C° 0.1 mm 1 m/S 669 mmHg 94%
    04:00 +20°C° 0.1 mm 1 m/S 669 mmHg 95%
    05:00 +21°C° 0 mm 1 m/S 670 mmHg 93%
    06:00 +20°C° 0 mm 2 m/S 670 mmHg 92%
    07:00 +21°C° 0 mm 2 m/S 671 mmHg 91%
    08:00 +24°C° 0 mm 2 m/S 671 mmHg 81%
    09:00 +26°C° 0 mm 2 m/S 671 mmHg 71%
    10:00 +28°C° 0 mm 3 m/S 672 mmHg 61%
    11:00 +29°C° 0 mm 3 m/S 671 mmHg 57%
    12:00 +30°C° 0 mm 3 m/S 671 mmHg 52%
    13:00 +31°C° 0 mm 3 m/S 670 mmHg 47%
    14:00 +31°C° 0 mm 2 m/S 670 mmHg 50%
    15:00 +30°C° 0 mm 2 m/S 669 mmHg 53%
    16:00 +29°C° 0 mm 2 m/S 669 mmHg 56%
    17:00 +27°C° 0 mm 2 m/S 669 mmHg 62%
    18:00 +25°C° 0 mm 1 m/S 669 mmHg 69%
    19:00 +23°C° 0 mm 1 m/S 669 mmHg 75%
    20:00 +23°C° 0 mm 1 m/S 670 mmHg 78%
    21:00 +22°C° 0 mm 1 m/S 670 mmHg 81%
    22:00 +21°C° 0 mm 1 m/S 670 mmHg 84%
    23:00 +21°C° 0 mm 1 m/S 670 mmHg 86%

    24 Januar, Donnerstag

    Zeit Temperatur Niederschläge Wind Luftdruck Luftfeuchtigkeit
    00:00 +21°C° 0 mm 1 m/S 669 mmHg 89%
    01:00 +20°C° 0 mm 1 m/S 669 mmHg 91%
    02:00 +18°C° 0 mm 0 m/S 669 mmHg 91%
    03:00 +18°C° 0 mm 0 m/S 669 mmHg 92%
    04:00 +18°C° 0 mm 0 m/S 669 mmHg 93%
    05:00 +18°C° 0 mm 0 m/S 669 mmHg 90%
    06:00 +19°C° 0 mm 0 m/S 670 mmHg 88%
    07:00 +22°C° 0 mm 1 m/S 670 mmHg 85%
    08:00 +24°C° 0 mm 1 m/S 671 mmHg 77%
    09:00 +26°C° 0 mm 1 m/S 671 mmHg 69%
    10:00 +28°C° 0 mm 2 m/S 672 mmHg 61%
    11:00 +29°C° 0 mm 2 m/S 671 mmHg 57%
    12:00 +30°C° 0 mm 2 m/S 671 mmHg 53%
    13:00 +31°C° 0 mm 2 m/S 670 mmHg 48%
    14:00 +31°C° 0 mm 2 m/S 670 mmHg 49%
    15:00 +30°C° 0 mm 2 m/S 669 mmHg 51%
    16:00 +30°C° 0 mm 2 m/S 669 mmHg 52%
    17:00 +28°C° 0 mm 2 m/S 669 mmHg 59%
    18:00 +26°C° 0 mm 1 m/S 669 mmHg 66%
    19:00 +24°C° 0 mm 1 m/S 669 mmHg 73%
    20:00 +23°C° 0 mm 1 m/S 669 mmHg 76%
    21:00 +20°C° 0 mm 0 m/S 670 mmHg 79%
    22:00 +20°C° 0 mm 0 m/S 670 mmHg 82%
    23:00 +19°C° 0 mm 0 m/S 670 mmHg 84%

    25 Januar, Freitag

    Zeit Temperatur Niederschläge Wind Luftdruck Luftfeuchtigkeit
    00:00 +19°C° 0 mm 0 m/S 669 mmHg 86%
    01:00 +18°C° 0 mm 0 m/S 669 mmHg 88%
    02:00 +18°C° 0 mm 0 m/S 669 mmHg 89%
    03:00 +18°C° 0 mm 0 m/S 669 mmHg 90%
    04:00 +18°C° 0 mm 0 m/S 669 mmHg 91%
    05:00 +19°C° 0 mm 0 m/S 670 mmHg 88%
    06:00 +20°C° 0 mm 0 m/S 670 mmHg 85%
    07:00 +21°C° 0 mm 0 m/S 671 mmHg 81%
    08:00 +24°C° 0 mm 0 m/S 671 mmHg 72%
    09:00 +28°C° 0 mm 1 m/S 672 mmHg 63%
    10:00 +31°C° 0 mm 1 m/S 672 mmHg 53%
    11:00 +32°C° 0 mm 1 m/S 672 mmHg 49%
    12:00 +33°C° 0 mm 1 m/S 671 mmHg 45%
    13:00 +34°C° 0 mm 2 m/S 671 mmHg 41%
    14:00 +34°C° 0 mm 2 m/S 670 mmHg 43%
    15:00 +32°C° 0 mm 2 m/S 670 mmHg 46%
    16:00 +32°C° 0 mm 2 m/S 669 mmHg 48%
    17:00 +30°C° 0 mm 1 m/S 669 mmHg 56%
    18:00 +28°C° 0 mm 1 m/S 669 mmHg 63%
    19:00 +25°C° 0 mm 1 m/S 669 mmHg 71%
    20:00 +24°C° 0.3 mm 1 m/S 670 mmHg 75%
    21:00 +23°C° 0.3 mm 1 m/S 670 mmHg 80%
    22:00 +20°C° 0.3 mm 0 m/S 670 mmHg 85%
    23:00 +20°C° 0.2 mm 0 m/S 670 mmHg 88%
    Mehr zeigen